Date String (YYYY-MM-DD hh:mm:ss) UTC,Instrument flags,absolute air pressure of the measurement (hPa),sample flow rate (lpm),inlet stack bypass flow (lpm),air temperature of the measurement (°C),ambient temperature measured by the external sensor (°C),aerosol sample conditioner tube jacket temperature (°C),OPC LED temperature (°C),internal box temperature (°C),relative humidity of the measurement (%),span deviation,mass concentration of particles derived from Lorenz-Mie calculation of OPC scattering (μg/m³),mass concentration of particles derived from Lorenz-Mie calculation of OPC scattering (μg/m³),mass concentration of particles derived from Lorenz-Mie calculation of OPC scattering (μg/m³)
DateTimeUTC,F1_M11,P_M11,Q1_M11,Q2_M11,T1_M11,T2_M11,T3_M11,T4_M11,T5_M11,U1_M11,ZSPAN_M11,X2_M11,X0_M11,X1_M11
2024-01-22 15:00:00,SystemResetWarning,0823.8,5.00,000.00,020.3,019.6,000.0,028.7,021.7,16.8,0003.7,0004.87,0008.03,0004.66
2024-01-22 15:01:00,SystemResetWarning,0823.8,5.00,000.00,020.3,019.6,000.0,028.7,021.7,16.8,0003.8,0004.85,0008.00,0004.65
2024-01-22 15:02:00,SystemResetWarning,0823.8,5.01,000.00,020.4,019.6,000.0,028.7,021.7,16.9,0003.9,0004.85,0007.95,0004.66
2024-01-22 15:03:00,SystemResetWarning,0823.8,4.99,000.00,020.4,019.6,000.0,028.7,021.8,17.1,0004.0,0004.87,0007.86,0004.69
2024-01-22 15:04:00,SystemResetWarning,0823.8,4.99,000.00,020.4,019.6,000.0,028.7,021.8,17.2,0004.1,0004.91,0007.90,0004.74
2024-01-22 15:05:00,SystemResetWarning,0823.8,4.99,000.00,020.4,019.6,000.0,028.7,021.8,17.2,0004.2,0004.96,0007.96,0004.80
2024-01-22 15:06:00,SystemResetWarning,0823.8,5.00,000.00,020.4,019.6,000.0,028.7,021.8,17.2,0004.2,0005.03,0008.06,0004.84
2024-01-22 15:07:00,SystemResetWarning,0823.9,5.01,000.00,020.4,019.6,000.0,028.7,021.7,17.1,0004.3,0005.08,0008.16,0004.88
2024-01-22 15:08:00,SystemResetWarning,0823.8,5.01,000.00,020.4,019.6,000.0,028.7,021.8,17.1,0004.4,0005.10,0008.18,0004.89
2024-01-22 15:09:00,SystemResetWarning,0823.9,4.99,000.00,020.4,019.6,000.0,028.7,021.7,17.0,0004.4,0005.12,0008.23,0004.90
2024-01-22 15:10:00,SystemResetWarning,0823.9,5.00,000.00,020.4,019.6,000.0,028.7,021.7,16.9,0004.5,0005.08,0008.16,0004.88
2024-01-22 15:11:00,SystemResetWarning,0823.9,5.00,000.00,020.4,019.6,000.0,028.7,021.8,16.9,0004.5,0005.07,0008.11,0004.87
2024-01-22 15:12:00,SystemResetWarning,0823.9,4.99,000.00,020.4,019.6,000.0,028.7,021.8,16.9,0004.2,0005.07,0008.11,0004.88
2024-01-22 15:13:00,SystemResetWarning,0823.9,4.99,000.00,020.4,019.6,000.0,028.7,021.8,17.0,0004.1,0005.06,0008.13,0004.85
2024-01-22 15:14:00,SystemResetWarning,0824.0,5.00,000.00,020.4,019.6,000.0,028.7,021.8,16.9,0004.1,0005.02,0008.08,0004.79
2024-01-22 15:15:00,SystemResetWarning,0824.0,5.00,000.00,020.4,019.6,000.0,028.7,021.8,16.8,0004.0,0004.95,0008.00,0004.73
2024-01-22 15:16:00,SystemResetWarning,0824.0,5.00,000.00,020.4,019.6,000.0,028.7,021.8,16.8,0003.9,0004.85,0007.89,0004.62
2024-01-22 15:17:00,SystemResetWarning,0823.9,5.00,000.00,020.4,019.6,000.0,028.7,021.8,16.8,0003.7,0004.70,0007.68,0004.50
2024-01-22 15:18:00,SystemResetWarning,0824.0,5.00,000.00,020.4,019.6,000.0,028.7,021.8,16.8,0003.5,0004.57,0007.47,0004.38
2024-01-22 15:19:00,SystemResetWarning,0823.9,5.00,000.00,020.4,019.6,000.0,028.7,021.8,16.8,0003.5,0004.46,0007.29,0004.29
2024-01-22 15:20:00,SystemResetWarning,0824.0,5.01,000.00,020.4,019.6,000.0,028.7,021.8,16.8,0003.1,0004.40,0007.18,0004.24
2024-01-22 15:21:00,SystemResetWarning,0824.0,5.01,000.00,020.4,019.6,000.0,028.7,021.8,16.8,0002.9,0004.38,0007.24,0004.20
2024-01-22 15:22:00,SystemResetWarning,0824.0,5.00,000.00,020.4,019.6,000.0,028.7,021.8,16.8,0003.0,0004.31,0007.12,0004.14
2024-01-22 15:23:00,SystemResetWarning,0824.0,4.99,000.00,020.4,019.6,000.0,028.7,021.8,16.8,0003.6,0004.26,0006.99,0004.08
2024-01-22 15:24:00,SystemResetWarning,0824.0,5.00,000.00,020.4,019.6,000.0,028.7,021.8,16.7,0003.9,0004.22,0006.84,0004.06
2024-01-22 15:25:00,SystemResetWarning,0824.0,5.00,000.00,020.4,019.6,000.0,028.8,021.8,16.7,0003.8,0004.20,0006.80,0004.05
2024-01-22 15:26:00,SystemResetWarning,0824.0,5.01,000.00,020.4,019.6,000.0,028.8,021.8,16.8,0003.8,0004.21,0006.82,0004.07
2024-01-22 15:27:00,SystemResetWarning,0824.0,5.00,000.00,020.4,019.6,000.0,028.8,021.8,16.8,0003.9,0004.26,0007.01,0004.12
2024-01-22 15:28:00,SystemResetWarning,0824.0,5.00,000.00,020.4,019.6,000.0,028.8,021.8,16.8,0004.3,0004.35,0007.26,0004.20
2024-01-22 15:29:00,SystemResetWarning,0824.1,5.00,000.00,020.5,019.6,000.0,028.8,021.8,16.8,0004.5,0004.45,0007.44,0004.28
2024-01-22 15:30:00,SystemResetWarning,0824.1,5.00,000.00,020.5,019.6,000.0,028.8,021.8,16.8,0004.5,0004.50,0007.50,0004.33
2024-01-22 15:31:00,SystemResetWarning,0824.1,5.00,000.00,020.5,019.6,000.0,028.8,021.9,16.7,0004.3,0004.54,0007.56,0004.37
2024-01-22 15:32:00,SystemResetWarning,0824.2,5.00,000.00,020.5,019.6,000.0,028.8,021.8,16.7,0004.1,0004.54,0007.53,0004.37
2024-01-22 15:33:00,SystemResetWarning,0824.2,5.00,000.00,020.5,019.7,000.0,028.8,021.8,16.7,0004.3,0004.56,0007.51,0004.40
2024-01-22 15:34:00,SystemResetWarning,0824.2,5.00,000.00,020.5,019.7,000.0,028.8,021.9,16.8,0004.4,0004.58,0007.52,0004.43
2024-01-22 15:35:00,SystemResetWarning,0824.2,5.00,000.00,020.5,019.7,000.0,028.8,021.9,16.8,0004.5,0004.58,0007.55,0004.41
2024-01-22 15:36:00,SystemResetWarning,0824.1,5.00,000.00,020.5,019.7,000.0,028.8,021.9,16.8,0004.5,0004.56,0008.02,0004.39
2024-01-22 15:37:00,SystemResetWarning,0824.2,5.00,000.00,020.5,019.7,000.0,028.8,021.9,16.8,0004.4,0004.54,0008.09,0004.38
2024-01-22 15:38:00,SystemResetWarning,0824.3,5.00,000.00,020.5,019.7,000.0,028.8,021.9,16.8,0004.2,0004.51,0008.06,0004.35
2024-01-22 15:39:00,SystemResetWarning,0824.3,5.00,000.00,020.5,019.7,000.0,028.8,021.9,16.8,0004.1,0004.46,0008.00,0004.31
2024-01-22 15:40:00,SystemResetWarning,0824.3,5.00,000.00,020.5,019.7,000.0,028.8,021.9,16.8,0003.7,0004.40,0007.98,0004.24
2024-01-22 15:41:00,SystemResetWarning,0824.3,5.00,000.00,020.5,019.7,000.0,028.8,021.9,16.8,0003.6,0004.35,0007.96,0004.19
2024-01-22 15:42:00,SystemResetWarning,0824.3,5.00,000.00,020.5,019.7,000.0,028.8,021.9,16.8,0003.6,0004.28,0007.89,0004.13
2024-01-22 15:43:00,SystemResetWarning,0824.3,5.00,000.00,020.5,019.8,000.0,028.8,021.9,16.8,0004.0,0004.27,0007.93,0004.10
2024-01-22 15:44:00,SystemResetWarning,0824.3,5.00,000.00,020.5,019.8,000.0,028.8,021.9,16.8,0003.8,0004.27,0007.96,0004.08
2024-01-22 15:45:00,SystemResetWarning,0824.3,5.00,000.00,020.5,019.8,000.0,028.8,022.0,16.8,0003.7,0004.27,0007.98,0004.07
2024-01-22 15:46:00,SystemResetWarning,0824.4,5.00,000.00,020.6,019.8,000.0,028.9,022.0,16.8,0003.7,0004.25,0008.12,0004.06
2024-01-22 15:47:00,SystemResetWarning,0824.4,5.00,000.00,020.6,019.8,000.0,028.9,022.0,16.9,0003.6,0004.25,0007.80,0004.06
2024-01-22 15:48:00,SystemResetWarning,0824.4,5.01,000.00,020.6,019.8,000.0,028.9,022.0,17.7,0003.7,0004.28,0007.53,0004.10
2024-01-22 15:49:00,SystemResetWarning,0824.4,5.00,000.00,020.6,019.9,000.0,028.9,022.0,18.4,0003.9,0004.33,0007.58,0004.14
2024-01-22 15:50:00,SystemResetWarning,0824.4,5.00,000.00,020.6,019.9,000.0,028.9,022.0,18.9,0003.8,0004.36,0007.55,0004.17
2024-01-22 15:51:00,SystemResetWarning,0824.4,5.00,000.00,020.6,019.9,000.0,028.9,022.0,18.9,0003.8,0004.39,0007.50,0004.22
2024-01-22 15:52:00,SystemResetWarning,0824.3,5.00,000.00,020.6,019.9,000.0,028.9,022.0,18.9,0003.9,0004.45,0007.50,0004.28
2024-01-22 15:53:00,SystemResetWarning,0824.4,5.00,000.00,020.6,019.9,000.0,028.9,022.0,18.8,0004.0,0004.49,0007.51,0004.33
2024-01-22 15:54:00,SystemResetWarning,0824.3,4.99,000.00,020.6,019.9,000.0,028.9,022.0,18.0,0004.0,0004.49,0007.44,0004.36
2024-01-22 15:55:00,SystemResetWarning,0824.3,4.99,000.00,020.6,019.9,000.0,028.9,022.1,18.0,0004.4,0004.53,0007.52,0004.40
2024-01-22 15:56:00,SystemResetWarning,0824.3,4.99,000.00,020.6,019.9,000.0,028.9,022.1,17.3,0004.6,0004.55,0007.56,0004.42
2024-01-22 15:57:00,SystemResetWarning,0824.4,5.01,000.00,020.6,019.9,000.0,028.9,022.1,17.7,0004.5,0004.57,0007.55,0004.45
2024-01-22 15:58:00,SystemResetWarning,0824.4,5.01,000.00,020.7,019.9,000.0,028.9,022.1,17.4,0004.4,0004.62,0007.52,0004.50
2024-01-22 15:59:00,SystemResetWarning,0824.4,5.00,000.00,020.7,019.9,000.0,028.9,022.1,17.3,0004.5,0004.69,0007.65,0004.54
